Погода в Смоленске

Хотите узнать прогноз погоды в Смоленске? Тогда Вам сюда: Погода в Смоленске

Поиск расширенной информации на нашем сайте:

Полезная информация:

Новости сайта



02.01.2020
Опубликован Долгосрочный прогноз погоды по городам России и ближнего зарубежья на январь 2020 года.
Карты: Прогноз на январь и февраль 2020 года, Сравнение прогнозируемой аномалии приземной температуры воздуха на январь 2020 года по разным моделям.




Погода в Смоленске - сегодня

Время (UTC), дата Ветер
(°,м/с) 
Видим.   Явления Облачность Т
(°С)
Тd
(°С)
f(%) Тe
(°С)
Pmin
(гПа)
dP
(гПа)
Po
(мм)
O2
(г/м3)
Тmin Tmax R s Состояние
почвы
00 16.01.22 310 (СЗ) 10 км    10/10 600 м 
[Sc diur, vesp]
-0.7 -4.8 74 -2  1012  1.2  737  298           
03 16.01.22 300 (СЗ) 10 км    10/10 600 м 
[Sc]
-1.6 -6.2 71 -3  1012.9  0.8  737  299  -1.6         
06 16.01.22 300 (СЗ) 10 км    9/9 600 м 
[Sc]
-3.4 -6.8 77 -5  1014.6  1.4  738  302  -3.6      38  равномерный
сухой снег
100% 
09 16.01.22 290 (З) 20000 м    3/3 600 м 
[Sc]
-2.8 -6.7 74 -4  1015.3  0.8  739  301           
12 16.01.22 280 (З) 20000 м    1/1 600 м 
[Sc]
-1.5 -6.6 68 -2  1013.9  -1.3  738  300           
15 16.01.22 240 (ЮЗ) 10 км    ясно 
-4.4 -6.8 83 -6  1012.7  -1.5  737  302           
18 16.01.22 230 (ЮЗ) 10 км    3/0 верхняя 
[Ci fib]
-6 -6.9 93 -6  1009.8  -2.9  734  303    -1.3       
21 16.01.22 230 (ЮЗ) 10 км    8/8 300 м 
[Sc]
-3.9 -5 92 -5  1005.3  -4.2  731  299           
00 17.01.22 230 (ЮЗ) 4000 м  слаб. снег  10/0 средняя 
[As op]
-2.8 -4.6 87 -5  1000.9  -4.1  728  297           
03 17.01.22 220 (ЮЗ) 1000 м  снег  10/10 100 м 
[Frnb|Ns]
-3 -3.7 95 -4  995.6  -5.2  724  295  -6.1       
06 17.01.22 210 (ЮЗ) 4000 м  слаб. снег  10/10 300 м 
[Frnb|Ns]
-2.4 -3.1 95 -4  990.9  -4.5  721  293  -5.9    36  равномерный
сухой снег
100% 
09 17.01.22 220 (ЮЗ) 4000 м  слаб. снег  10/10 200 м 
[Frnb|Ns]
-1.1 -1.7 96 -4  987.1  -3.5  718  291           
12 17.01.22 210 (ЮЗ) 4000 м  слаб. снег  10/10 200 м 
[Frnb|Ns]
-0.2 -0.7 96 -2  983.4  -3.5  716  289           
15 17.01.22 230 (ЮЗ) 2000 м  слаб. снег  10/10 100 м 
[Frnb|Ns]
-0.2 -0.5 98 -1  982.6  -0.8  715  288         
18 17.01.22 300 (СЗ) 1000 м  сильн. снег [диам. отлож. мокр. снега 3 мм]  10/10 100 м 
[Frnb|Ns]
-0.6 -0.8 99 -3  985.7  717  290    +0     
21 17.01.22 320 (СЗ) 5-10{11}  2000 м  снег  10/10 100 м 
[Frnb|Ns]
-2.9 -3.3 97 -6  990.3  4.2  721  294           
00 18.01.22 320 (СЗ) 4-11{13}  2000 м  слаб. снег  10/10 100 м 
[Frnb|Ns]
-5.4 -6.2 94 -9  996.7  5.9  725  299           
03 18.01.22 320 (СЗ) 3{12}  10 км  позёмок{снег}  9/9 600 м 
[Sc]
-6.6 -8.2 88 -9  1001.9  729  302  -6.6       
06 18.01.22 330 (СЗ) 10 км  в посл. час ливневой снег  9/8 300 м кучево-дожд., верхняя 
[Cb cap|Ci fib]
-7.2 -9.8 82 -10  1006.5  4.3  732  304  -7.3    42  равномерный
сухой снег
100% 
09 18.01.22 340 (С) 4000 м  слаб. ливневой снег  9/8 300 м кучево-дожд., верхняя 
[Cb cap|Ci fib]
-6.2 -9.7 76 -9  1010.6  4.1  735  304           
12 18.01.22 310 (СЗ) 3{10}  4000 м  слаб. ливневой снег  9/5 300 м кучево-дожд., верхняя 
[Cb cap|Ci fib]
-5.9 -9.3 77 -8  1013.5  2.9  737  304           
15 18.01.22 330 (СЗ) 3{10}  10 км  {ливн. осадки}  3/3 300 м кучево-дожд. 
[Cb cap]
-7 -10 79 -10  1017.8  740  307      0.0     
18 18.01.22 330 (СЗ) 3{11}  10 км  {ливн. осадки}  6/0 верхняя 
[Ci fib]
-8.4 -10.6 84 -11  1021.1  742  310    -5.6  0.0     
21 18.01.22 320 (СЗ) 10 км    9/0 средняя 
[Ac trans]
-9.1 -10.6 89 -11  1022.7  1.5  744  311           
00 19.01.22 300 (СЗ) 10 км    10/10 300 м 
[Sc]
-8.5 -9.4 93 -8  1022.5  -0.1  743  310           
Время (UTC), дата Ветер
(°,м/с) 
Видим.   Явления Облачность Т
(°С)
Тd
(°С)
f(%) Тe
(°С)
Pmin
(гПа)
dP
(гПа)
Po
(мм)
O2
(г/м3)
Тmin Tmax R s Состояние
почвы

Для получения пояснительной информации подведите курсор к названию столбца.

ПОГОДА в Смоленске - архив

Всё, что Вы хотите узнать о погоде в Смоленске - удобно и подробно!

Выберите нужную дату (начиная с 1 января 2019* года) и нажмите кнопку "Найти".
Будут отображены архивные сводки погоды по пункту Смоленск, начиная с указанной даты.


Отображать данные в формате CSV (для использования в таблицах Excel)


Внимание! Наш архив погоды предназначен исключительно для личного некоммерческого использования в познавательных целях. Если Вам необходимы официальные справки о состоянии погоды (для производственных, юридических, коммерческих и т.п. целей), обращайтесь в органы Росгидромета.

*Примечание: данная дата относится к архиву по метеостанциям СССР (Россия, СНГ, Балтия).
Архив по метеостанциям Зарубежной Европы и Азии (кроме Китая) хранится 10 дней, по другим регионам земного шара (Китай, Африка, Америка, Австралия, Океания) - 1 день.

Смоленск - район местоположения метеостанции


Название, широта, долгота, высота метеостанции:
Смоленск 54.8°ш. 32.1°д. 239 м над ур. моря [Российская Федерация]

Дополнительная информация

В oтличие oт бoльшинства пoгoдных сайтoв мы публикуем пoдрoбную метеoинфoрмацию в детальнoм прoфессиoнальнoм фoрмате.

Характеристики температуры и влажнoсти вoздуха измеряются на высoте 2 м в тени вдали oт зданий и деревьев.
Скoрoсть ветра измеряется на высoте 10 м (на урoвне рoста челoвека скoрoсть ветра ниже в 1.5-2 раза). Если метеoстанция нахoдится в гoрoде или в лесу, тo скoрoсть ветра занижена на 2-4 м/с пo сравнению с oткрытым местoм. Скoрoсть ветра над акватoриями крупных рек и oзёр, а также на вершинах хoлмoв на 2-5 м/с выше, чем в oбычных услoвиях.
Атмoсфернoе давление в разных тoчках местнoсти мoжет значительнo oтличаться oт давления на метеoстанции, в зависимoсти oт услoвий рельефа (при пoдъёме на 10 м давление пoнижается примернo на 1 мм рт.ст.).